Location: Byszew
(52.1813°N, 19.2693°E)
Time: 14:45:47
(UTC+00:00)

Resurs 01 Rocket - Pass Details

Date: 03 March 2021
Orbit: 635 x 643 km, 98.0° (Epoch: 13 April)

Event Time Altitude Azimuth Distance (km) Brightness Sun altitude
Exits shadow 17:35:08 14° 74° (ENE) 1,756 3.3 -11.3°
Maximum altitude 17:36:18 16° 55° (NE) 1,681 3.3 -11.5°
Drops below altitude 10° 17:38:56 10° 19° (NNE) 2,037 4.1 -11.9°
Sets 17:41:54 0° 358° (N) 2,952 5.1 -12.4°
